IGO978 VOKN-VAPO

Flight info

Callsign IGO978
Flight time N/A
Altitude 36000
Route VOKN/07 IGNOR V86 MML W17 BBM/N0455F370 J104 AGELA/N0459F360 G208 AVKOR
Aircraft A21N/M-SDE2E3FGHIRWXY/LB1

Departure

Time N/A
Airport Kannur International Airport (VOKN)

Arrival

Time 2026-05-05 16:26
Airport Pune International Airport (VAPO)
Time Latitude Longitude Altitude Speed Heading
2026-05-05 15:56 16.03821 74.38539 35969 ft 458 kts 348°
2026-05-05 15:57 16.10063 74.37241 35958 ft 457 kts 348°
2026-05-05 15:57 16.16254 74.35954 35943 ft 449 kts 347°
2026-05-05 15:58 16.22323 74.34690 35956 ft 452 kts 348°
2026-05-05 15:58 16.28537 74.33392 35960 ft 455 kts 348°
2026-05-05 15:59 16.34751 74.32097 35956 ft 456 kts 348°
2026-05-05 15:59 16.40969 74.30799 35960 ft 455 kts 347°
2026-05-05 16:00 16.47153 74.29513 35748 ft 450 kts 347°
2026-05-05 16:00 16.50196 74.28876 35460 ft 453 kts 347°
2026-05-05 16:00 16.53290 74.28229 35216 ft 454 kts 347°
2026-05-05 16:00 16.56383 74.27580 34986 ft 454 kts 347°
2026-05-05 16:01 16.59480 74.26932 34772 ft 455 kts 347°
2026-05-05 16:01 16.62596 74.26281 34535 ft 457 kts 348°
2026-05-05 16:01 16.65715 74.25628 34309 ft 457 kts 348°
2026-05-05 16:01 16.68836 74.24976 34088 ft 457 kts 347°
2026-05-05 16:02 16.71958 74.24324 33852 ft 458 kts 348°
2026-05-05 16:02 16.78176 74.23017 34006 ft 460 kts 347°
2026-05-05 16:02 16.81312 74.22358 33884 ft 459 kts 347°
2026-05-05 16:03 16.84431 74.21702 33672 ft 458 kts 347°
2026-05-05 16:03 16.87559 74.21047 33430 ft 459 kts 347°
2026-05-05 16:03 16.90699 74.20390 33186 ft 459 kts 347°
2026-05-05 16:03 16.93833 74.19735 32941 ft 460 kts 347°
2026-05-05 16:04 16.96970 74.19076 32695 ft 460 kts 347°
2026-05-05 16:04 17.00109 74.18418 32454 ft 461 kts 347°
2026-05-05 16:04 17.03211 74.17765 32109 ft 460 kts 347°
2026-05-05 16:04 17.06338 74.17104 31523 ft 458 kts 347°
2026-05-05 16:05 17.09456 74.16448 30929 ft 456 kts 347°
2026-05-05 16:05 17.12563 74.15797 30337 ft 454 kts 346°
2026-05-05 16:05 17.15650 74.15149 29700 ft 451 kts 346°
2026-05-05 16:05 17.18715 74.14503 29019 ft 447 kts 346°
2026-05-05 16:06 17.21744 74.13867 28382 ft 443 kts 347°
2026-05-05 16:06 17.24751 74.13231 27796 ft 437 kts 347°
2026-05-05 16:06 17.27714 74.12605 27211 ft 432 kts 347°
2026-05-05 16:06 17.30640 74.11992 26650 ft 427 kts 347°
2026-05-05 16:07 17.33494 74.11392 26175 ft 421 kts 347°
2026-05-05 16:07 17.36343 74.10788 25619 ft 417 kts 347°
2026-05-05 16:07 17.39191 74.10185 24965 ft 416 kts 347°
2026-05-05 16:07 17.42014 74.09591 24375 ft 413 kts 348°
2026-05-05 16:08 17.44824 74.09000 23828 ft 410 kts 347°
2026-05-05 16:08 17.47609 74.08410 23227 ft 406 kts 347°
2026-05-05 16:08 17.50362 74.07828 22612 ft 401 kts 348°
2026-05-05 16:08 17.53079 74.07257 22011 ft 397 kts 348°
2026-05-05 16:09 17.55773 74.06687 21439 ft 393 kts 348°
2026-05-05 16:09 17.58439 74.06123 20885 ft 388 kts 348°
2026-05-05 16:09 17.61035 74.05575 20360 ft 383 kts 348°
2026-05-05 16:09 17.63629 74.05030 19862 ft 379 kts 348°
2026-05-05 16:10 17.66196 74.04488 19387 ft 374 kts 348°
2026-05-05 16:10 17.68733 74.03951 18917 ft 369 kts 348°
2026-05-05 16:10 17.71235 74.03423 18469 ft 366 kts 348°
2026-05-05 16:10 17.73728 74.02895 18003 ft 365 kts 348°
2026-05-05 16:11 17.76224 74.02367 17525 ft 365 kts 348°
2026-05-05 16:11 17.83650 74.00779 16141 ft 364 kts 348°
2026-05-05 16:12 17.86135 74.00244 15700 ft 364 kts 348°
2026-05-05 16:12 17.91092 73.99184 14837 ft 364 kts 349°
2026-05-05 16:13 17.98549 73.97611 13486 ft 365 kts 349°
2026-05-05 16:13 18.01041 73.97084 13010 ft 365 kts 349°
2026-05-05 16:13 18.03501 73.96584 12581 ft 364 kts 351°
2026-05-05 16:14 18.08537 73.96098 11716 ft 363 kts 356°
2026-05-05 16:14 18.13553 73.95693 10881 ft 356 kts 356°
2026-05-05 16:15 18.18334 73.95282 10463 ft 333 kts 356°
2026-05-05 16:15 18.22808 73.94890 10165 ft 311 kts 356°
2026-05-05 16:16 18.27038 73.94520 9191 ft 304 kts 355°
2026-05-05 16:16 18.31204 73.94151 8623 ft 296 kts 354°
2026-05-05 16:17 18.35267 73.93805 7879 ft 293 kts 356°
2026-05-05 16:17 18.37266 73.94182 7514 ft 297 kts 24°
2026-05-05 16:18 18.39710 73.97483 6955 ft 296 kts 72°
2026-05-05 16:18 18.40372 73.99557 6666 ft 296 kts 68°
2026-05-05 16:18 18.42273 74.03362 6042 ft 295 kts 54°
2026-05-05 16:19 18.43514 74.05065 5727 ft 291 kts 46°
2026-05-05 16:19 18.44905 74.06597 5410 ft 289 kts 40°
2026-05-05 16:19 18.48038 74.09124 4810 ft 277 kts 28°
2026-05-05 16:20 18.51314 74.10844 4113 ft 249 kts 16°
2026-05-05 16:20 18.54207 74.11704 4124 ft 182 kts
2026-05-05 16:21 18.56287 74.11821 4047 ft 135 kts 329°
2026-05-05 16:22 18.57182 74.09148 4095 ft 133 kts 272°
2026-05-05 16:22 18.57298 74.07205 4093 ft 133 kts 275°
2026-05-05 16:23 18.57417 74.05264 4059 ft 133 kts 275°
2026-05-05 16:23 18.57477 74.04294 3921 ft 132 kts 275°
2026-05-05 16:23 18.57597 74.02370 3607 ft 131 kts 275°
2026-05-05 16:24 18.57657 74.01410 3448 ft 131 kts 276°
2026-05-05 16:24 18.57717 74.00453 3269 ft 131 kts 276°
2026-05-05 16:24 18.57836 73.98521 2922 ft 132 kts 274°
2026-05-05 16:25 18.57897 73.97550 2758 ft 137 kts 274°
2026-05-05 16:25 18.58021 73.95562 2390 ft 134 kts 274°
2026-05-05 16:25 18.58069 73.94602 2225 ft 132 kts 274°
2026-05-05 16:26 18.58189 73.92662 1942 ft 134 kts 273°
2026-05-05 16:26 18.58271 73.91253 1925 ft 22 kts 274°
2026-05-05 16:27 18.58230 73.91106 1925 ft 8 kts 246°
2026-05-05 16:27 18.58225 73.91095 1925 ft 0 kts 246°
2026-05-05 16:27 18.58224 73.91092 1925 ft 2 kts 246°
2026-05-05 16:28 18.58216 73.91073 1925 ft 4 kts 246°
2026-05-05 16:28 18.58200 73.91035 1925 ft 6 kts 246°
2026-05-05 16:28 18.58180 73.90987 1925 ft 9 kts 245°
2026-05-05 16:28 18.58132 73.90936 1925 ft 12 kts 208°
2026-05-05 16:29 18.58064 73.90928 1925 ft 6 kts 174°
2026-05-05 16:29 18.58031 73.90926 1925 ft 1 kts 188°
2026-05-05 16:29 18.58013 73.90924 1925 ft 4 kts 186°
2026-05-05 16:29 18.58001 73.90922 1925 ft 1 kts 188°
2026-05-05 16:30 18.58006 73.90922 1925 ft 0 kts 187°